FW1304 Weather Reports


Display with metric or nautical units.
time (UTC)temp
F
wind
direction
speed
MPH
gust
MPH
rain 1hr
in
rain 24hr
in
rain mn
in
humidity
%
barometer
mb
20260506202358 44 281 0.0 2.0 0.00 0.00 0.00 49 1013.9
20260506201823 44 257 0.0 4.0 0.00 0.00 0.00 48 1013.7
20260506201325 44 282 0.0 4.0 0.00 0.00 0.00 50 1013.9
20260506200842 44 296 0.0 4.0 0.00 0.00 0.00 49 1013.8
20260506200349 44 336 0.0 4.0 0.00 0.00 0.00 49 1013.8
20260506195832 44 304 0.0 5.0 0.00 0.00 0.00 48 1013.8
20260506195328 44 355 0.0 5.0 0.00 0.00 0.00 50 1013.9
20260506194816 44 317 0.0 4.0 0.00 0.00 0.00 50 1013.8
20260506194317 44 281 0.0 6.0 0.00 0.00 0.00 50 1013.8
20260506193815 44 323 1.0 6.0 0.00 0.00 0.00 50 1013.9
20260506193329 44 349 0.0 2.0 0.00 0.00 0.00 51 1013.8
20260506192814 43 281 0.0 4.0 0.00 0.00 0.00 52 1013.9
20260506192321 43 324 0.0 4.0 0.00 0.00 0.00 50 1013.9
20260506191838 43 273 0.0 2.0 0.00 0.00 0.00 52 1014.0
20260506191320 43 303 0.0 4.0 0.00 0.00 0.00 51 1014.0
20260506190832 43 291 0.0 4.0 0.00 0.00 0.00 52 1014.0
20260506190320 42 360 0.0 4.0 0.00 0.00 0.00 52 1014.0
20260506185816 42 330 0.0 4.0 0.00 0.00 0.00 51 1014.1
20260506185313 42 296 0.0 2.0 0.00 0.00 0.00 53 1014.1
20260506184820 42 355 0.0 4.0 0.00 0.00 0.00 52 1014.0
20260506184334 42 283 1.0 4.0 0.00 0.00 0.00 52 1014.2
20260506183821 42 318 0.0 2.0 0.00 0.00 0.00 53 1014.2
20260506183339 42 322 0.0 1.0 0.00 0.00 0.00 53 1014.1
20260506182813 42 298 0.0 2.0 0.00 0.00 0.00 52 1014.2
20260506182401 42 304 0.0 2.0 0.00 0.00 0.00 52 1014.2
20260506181846 42 294 0.0 1.0 0.00 0.00 0.00 53 1014.2
20260506181330 42 310 0.0 2.0 0.00 0.00 0.00 52 1014.3
20260506180846 42 271 0.0 6.0 0.00 0.00 0.00 52 1014.3
20260506180342 42 246 1.0 6.0 0.00 0.00 0.00 53 1014.2
20260506175825 42 287 0.0 2.0 0.00 0.00 0.00 52 1014.3
20260506175313 41 15 0.0 2.0 0.00 0.00 0.00 54 1014.3
20260506174830 41 280 0.0 2.0 0.00 0.00 0.00 53 1014.3
20260506174349 41 331 0.0 2.0 0.00 0.00 0.00 53 1014.4
20260506173844 41 337 0.0 2.0 0.00 0.00 0.00 54 1014.4
20260506173400 41 317 0.0 2.0 0.00 0.00 0.00 53 1014.4
20260506172822 41 355 0.0 2.0 0.00 0.00 0.00 54 1014.5
20260506172331 41 13 0.0 2.0 0.00 0.00 0.00 54 1014.5
20260506171847 41 337 0.0 1.0 0.00 0.00 0.00 54 1014.5
20260506171330 41 298 0.0 2.0 0.00 0.00 0.00 54 1014.6
20260506170829 41 302 0.0 2.0 0.00 0.00 0.00 54 1014.5
20260506170315 41 342 0.0 5.0 0.00 0.00 0.00 54 1014.7
20260506165838 41 5 0.0 5.0 0.00 0.00 0.00 54 1014.6
20260506165313 41 317 0.0 5.0 0.00 0.00 0.00 55 1014.7
20260506164850 41 15 0.0 4.0 0.00 0.00 0.00 54 1014.6
20260506164313 40 5 0.0 4.0 0.00 0.00 0.00 55 1014.6
20260506163821 40 309 0.0 4.0 0.00 0.00 0.00 55 1014.6
20260506163317 40 295 0.0 5.0 0.00 0.00 0.00 55 1014.7
20260506162820 40 327 0.0 2.0 0.00 0.00 0.00 55 1014.7
20260506162353 40 305 0.0 5.0 0.00 0.00 0.00 55 1014.7
20260506161819 40 292 0.0 4.0 0.00 0.00 0.00 55 1014.7
20260506161323 40 341 0.0 4.0 0.00 0.00 0.00 55 1014.7
20260506160842 40 5 0.0 6.0 0.00 0.00 0.00 55 1014.7
20260506160326 40 284 0.0 6.0 0.00 0.00 0.00 55 1014.6
20260506155837 40 335 0.0 6.0 0.00 0.00 0.00 54 1014.6
20260506155345 40 315 0.0 5.0 0.00 0.00 0.00 55 1014.6
20260506154822 40 298 0.0 5.0 0.00 0.00 0.00 55 1014.6
20260506154320 40 316 1.0 4.0 0.00 0.00 0.00 55 1014.6
20260506153818 40 329 1.0 4.0 0.00 0.00 0.00 55 1014.6
20260506153354 40 22 0.0 4.0 0.00 0.00 0.00 57 1014.6
20260506152835 40 24 0.0 4.0 0.00 0.00 0.00 56 1014.5
20260506152340 40 316 0.0 5.0 0.00 0.00 0.00 55 1014.5
20260506151815 40 306 0.0 5.0 0.00 0.00 0.00 56 1014.6
20260506151319 40 303 0.0 5.0 0.00 0.00 0.00 56 1014.6
20260506150836 40 299 0.0 2.0 0.00 0.00 0.00 56 1014.6
20260506150324 39 312 0.0 5.0 0.00 0.00 0.00 57 1014.5
20260506145826 39 53 0.0 5.0 0.00 0.00 0.00 56 1014.6
20260506145321 39 317 0.0 4.0 0.00 0.00 0.00 55 1014.6
20260506144838 39 282 0.0 2.0 0.00 0.00 0.00 57 1014.6
20260506144323 39 325 0.0 5.0 0.00 0.00 0.00 56 1014.5
20260506143901 39 337 0.0 2.0 0.00 0.00 0.00 57 1014.5
20260506143327 39 288 0.0 2.0 0.00 0.00 0.00 57 1014.6
20260506142821 39 360 0.0 4.0 0.00 0.00 0.00 57 1014.6
20260506142319 39 310 0.0 4.0 0.00 0.00 0.00 58 1014.6
20260506141823 39 360 0.0 2.0 0.00 0.00 0.00 57 1014.5
20260506141328 39 294 0.0 2.0 0.00 0.00 0.00 57 1014.5
20260506140844 39 319 0.0 2.0 0.00 0.00 0.00 57 1014.5
20260506140319 39 36 0.0 2.0 0.00 0.00 0.00 58 1014.5
20260506135818 39 274 0.0 2.0 0.00 0.00 0.00 58 1014.4
20260506135326 39 333 0.0 2.0 0.00 0.00 0.00 58 1014.3
20260506134822 39 301 0.0 4.0 0.00 0.00 0.00 58 1014.2
20260506134324 39 335 0.0 4.0 0.00 0.00 0.00 59 1014.2
20260506133832 39 329 0.0 4.0 0.00 0.00 0.00 59 1014.2
20260506133329 39 300 0.0 3.0 0.00 0.00 0.00 59 1014.3
20260506132830 39 314 0.0 1.0 0.00 0.00 0.00 59 1014.1
20260506132317 39 351 0.0 1.0 0.00 0.00 0.00 62 1014.0
20260506131813 38 323 0.0 1.0 0.00 0.00 0.00 61 1014.0
20260506131317 38 310 0.0 1.0 0.00 0.00 0.00 61 1013.9
20260506130824 38 321 0.0 1.0 0.00 0.00 0.00 62 1013.9
20260506130320 37 300 0.0 1.0 0.00 0.00 0.00 63 1013.8
20260506125823 37 331 0.0 1.0 0.00 0.00 0.00 64 1013.6
20260506125339 37 309 0.0 1.0 0.00 0.00 0.00 65 1013.7
20260506124827 36 300 0.0 2.0 0.00 0.00 0.00 66 1013.5
20260506124323 36 252 0.0 1.0 0.00 0.00 0.00 67 1013.5
20260506123819 35 327 0.0 1.0 0.00 0.00 0.00 68 1013.5
20260506123327 35 296 0.0 0.0 0.00 0.00 0.00 69 1013.6
20260506122829 35 301 0.0 0.0 0.00 0.00 0.00 70 1013.5
20260506122316 34 297 0.0 0.0 0.00 0.00 0.00 71 1013.5
20260506121833 34 318 0.0 0.0 0.00 0.00 0.00 73 1013.4
20260506121330 34 325 0.0 0.0 0.00 0.00 0.00 73 1013.4
20260506120838 33 283 0.0 0.0 0.00 0.00 0.00 74 1013.3
20260506120313 33 293 0.0 0.0 0.00 0.00 0.00 75 1013.3
20260506115815 32 294 0.0 0.0 0.00 0.00 0.00 75 1013.3
20260506115331 32 280 0.0 0.0 0.00 0.00 0.00 76 1013.2
20260506114818 32 273 0.0 0.0 0.00 0.00 0.00 76 1013.2
20260506114320 32 263 0.0 0.0 0.00 0.00 0.00 76 1013.1
20260506113835 32 282 0.0 0.0 0.00 0.00 0.00 75 1013.0
20260506113322 32 284 0.0 0.0 0.00 0.00 0.00 75 1013.0
20260506112826 32 297 0.0 0.0 0.00 0.00 0.00 75 1012.9
20260506112322 32 299 0.0 0.0 0.00 0.00 0.00 75 1013.0
20260506111829 32 252 0.0 0.0 0.00 0.00 0.00 75 1013.0
20260506111332 32 294 0.0 0.0 0.00 0.00 0.00 75 1013.0
20260506110829 32 294 0.0 0.0 0.00 0.00 0.00 75 1013.1
20260506110316 32 275 0.0 0.0 0.00 0.00 0.00 75 1013.1
20260506105828 32 275 0.0 0.0 0.00 0.00 0.00 74 1013.1
20260506105315 32 282 0.0 0.0 0.00 0.00 0.00 74 1013.0
20260506104832 32 296 0.0 0.0 0.00 0.00 0.00 74 1012.9
20260506104335 32 303 0.0 0.0 0.00 0.00 0.00 74 1012.9
20260506103822 32 297 0.0 0.0 0.00 0.00 0.00 73 1012.7
20260506103335 32 270 0.0 0.0 0.00 0.00 0.00 73 1012.6
20260506102837 32 265 0.0 0.0 0.00 0.00 0.00 73 1012.6
20260506102355 32 283 0.0 0.0 0.00 0.00 0.00 72 1012.5
20260506101821 32 301 0.0 0.0 0.00 0.00 0.00 72 1012.4
20260506101324 32 297 0.0 0.0 0.00 0.00 0.00 72 1012.5
20260506100841 32 296 0.0 0.0 0.00 0.00 0.00 71 1012.5
20260506100349 32 293 0.0 0.0 0.00 0.00 0.00 71 1012.4
20260506095832 32 308 0.0 0.0 0.00 0.00 0.00 70 1012.5
20260506095319 32 293 0.0 0.0 0.00 0.00 0.00 70 1012.5
20260506094836 32 281 0.0 0.0 0.00 0.00 0.00 70 1012.5
20260506094318 32 288 0.0 0.0 0.00 0.00 0.00 70 1012.6
20260506093834 33 292 0.0 0.0 0.00 0.00 0.00 70 1012.6
20260506093322 32 279 0.0 0.0 0.00 0.00 0.00 70 1012.5
20260506092824 32 277 0.0 0.0 0.00 0.00 0.00 70 1012.5
20260506092340 32 275 0.0 0.0 0.00 0.00 0.00 70 1012.6
20260506091828 32 266 0.0 0.0 0.00 0.00 0.00 70 1012.5
20260506091324 32 273 0.0 0.0 0.00 0.00 0.00 70 1012.4
20260506090820 32 268 0.0 0.0 0.00 0.00 0.00 70 1012.4
20260506090323 33 282 0.0 0.0 0.00 0.00 0.00 70 1012.4
20260506085826 33 288 0.0 0.0 0.00 0.00 0.00 69 1012.3
20260506085323 33 297 0.0 0.0 0.00 0.00 0.00 69 1012.2
20260506084839 33 298 0.0 0.0 0.00 0.00 0.00 69 1012.1
20260506084342 33 298 0.0 0.0 0.00 0.00 0.00 68 1012.0
20260506083829 33 298 0.0 0.0 0.00 0.00 0.00 68 1012.1
20260506083325 33 300 0.0 0.0 0.00 0.00 0.00 68 1012.2
20260506082825 33 301 0.0 0.0 0.00 0.00 0.00 68 1012.2
20260506082342 33 301 0.0 0.0 0.00 0.00 0.00 68 1012.3
20260506081850 33 302 0.0 0.0 0.00 0.00 0.00 68 1012.4
20260506081400 33 290 0.0 0.0 0.00 0.00 0.00 68 1012.3
20260506080823 33 327 0.0 0.0 0.00 0.00 0.00 68 1012.3
20260506080340 33 290 0.0 0.0 0.00 0.00 0.00 68 1012.3
20260506073323 34 295 0.0 0.0 0.00 0.00 0.00 67 1012.0
20260506072834 34 308 0.0 0.0 0.00 0.00 0.00 66 1011.9
20260506072321 34 309 0.0 0.0 0.00 0.00 0.00 66 1011.9
20260506071816 34 309 0.0 0.0 0.00 0.00 0.00 66 1011.9
20260506071340 34 310 0.0 0.0 0.00 0.00 0.00 66 1011.9
20260506070815 34 313 0.0 0.0 0.00 0.00 0.00 65 1012.0
20260506070323 34 317 0.0 0.0 0.00 0.00 0.00 65 1012.0
20260506062332 35 311 0.0 0.0 0.00 0.00 0.00 63 1012.0
20260506061830 36 315 0.0 0.0 0.00 0.00 0.00 62 1012.0
20260506061352 36 317 0.0 0.0 0.00 0.00 0.00 62 1012.0
20260506060819 36 320 0.0 0.0 0.00 0.00 0.00 62 1012.0
20260506060316 36 318 0.0 0.0 0.00 0.00 0.00 62 1012.0
20260506051341 37 311 0.0 0.0 0.00 0.00 0.00 59 1011.8
20260506050823 37 296 0.0 0.0 0.00 0.00 0.00 59 1011.7
20260506050320 37 325 0.0 0.0 0.00 0.00 0.00 59 1011.7
20260506044823 38 321 0.0 0.0 0.00 0.00 0.00 58 1011.6
20260506044338 38 327 0.0 0.0 0.00 0.00 0.00 58 1011.6
20260506043823 38 360 0.0 0.0 0.00 0.00 0.00 57 1011.6
20260506043320 38 306 0.0 1.0 0.00 0.00 0.00 57 1011.7
20260506042823 38 5 0.0 0.0 0.00 0.00 0.00 57 1011.6
20260506042330 39 13 0.0 0.0 0.00 0.00 0.00 56 1011.6
20260506041828 39 320 0.0 0.0 0.00 0.00 0.00 56 1011.6
20260506041325 39 327 0.0 0.0 0.00 0.00 0.00 56 1011.6
20260506040841 39 318 0.0 0.0 0.00 0.00 0.00 55 1011.5
20260506040328 39 301 0.0 0.0 0.00 0.00 0.00 55 1011.5
20260506035830 39 326 0.0 0.0 0.00 0.00 0.00 55 1011.4
20260506035347 40 317 0.0 0.0 0.00 0.00 0.00 54 1011.4
20260506034813 40 321 0.0 0.0 0.00 0.00 0.00 54 1011.3
20260506034342 40 315 0.0 2.0 0.00 0.00 0.00 53 1011.3
20260506033828 40 318 0.0 2.0 0.00 0.00 0.00 53 1011.2
20260506033325 40 310 0.0 1.0 0.00 0.00 0.00 53 1011.1
20260506032821 40 306 0.0 1.0 0.00 0.00 0.00 54 1011.0
20260506032338 40 338 0.0 0.0 0.00 0.00 0.00 54 1011.0
20260506031826 40 307 0.0 0.0 0.00 0.00 0.00 54 1011.0
20260506031329 40 304 0.0 0.0 0.00 0.00 0.00 53 1011.0
20260506030845 41 310 0.0 0.0 0.00 0.00 0.00 53 1010.9
20260506030340 41 327 0.0 0.0 0.00 0.00 0.00 52 1010.9
20260506025839 41 306 0.0 0.0 0.00 0.00 0.00 52 1010.9
20260506025327 41 321 0.0 0.0 0.00 0.00 0.00 52 1010.9
20260506024822 41 323 0.0 0.0 0.00 0.00 0.00 52 1010.9
20260506024322 41 321 0.0 1.0 0.00 0.00 0.00 51 1010.9
20260506023829 42 325 0.0 1.0 0.00 0.00 0.00 51 1010.7
20260506023345 42 317 0.0 2.0 0.00 0.00 0.00 51 1010.7
20260506022819 42 309 0.0 2.0 0.00 0.00 0.00 51 1010.6
20260506022337 42 311 0.0 2.0 0.00 0.00 0.00 51 1010.6
20260506021828 42 328 0.0 2.0 0.00 0.00 0.00 51 1010.5
20260506021331 42 326 0.0 2.0 0.00 0.00 0.00 51 1010.5
20260506020818 43 343 0.0 2.0 0.00 0.00 0.00 50 1010.4
20260506020314 43 338 0.0 4.0 0.00 0.00 0.00 50 1010.3
20260506015815 43 327 0.0 4.0 0.00 0.00 0.00 50 1010.2
20260506015332 43 315 0.0 4.0 0.00 0.00 0.00 50 1010.1
20260506014820 44 317 0.0 4.0 0.00 0.00 0.00 50 1010.1
20260506014316 44 336 0.0 1.0 0.00 0.00 0.00 50 1010.0
20260506013833 44 350 0.0 1.0 0.00 0.00 0.00 50 1010.0
20260506013328 44 355 0.0 1.0 0.00 0.00 0.00 50 1009.9
20260506012831 44 325 0.0 4.0 0.00 0.00 0.00 49 1009.8
20260506012318 45 17 0.0 5.0 0.00 0.00 0.00 48 1009.8
20260506011816 45 29 0.0 5.0 0.00 0.00 0.00 48 1009.7
20260506011318 45 314 0.0 5.0 0.00 0.00 0.00 47 1009.6
20260506010827 45 309 0.0 2.0 0.00 0.00 0.00 47 1009.6
20260506010322 46 302 0.0 6.0 0.00 0.00 0.00 46 1009.4
20260506005824 46 350 0.0 5.0 0.00 0.00 0.00 46 1009.4
20260506005342 46 296 0.0 5.0 0.00 0.00 0.00 45 1009.4
20260506004830 46 333 0.0 5.0 0.00 0.00 0.00 46 1009.3
20260506004328 46 309 0.0 2.0 0.00 0.00 0.00 45 1009.2
20260506003816 46 299 0.0 1.0 0.00 0.00 0.00 45 1009.1
20260506003332 46 292 0.0 1.0 0.00 0.00 0.00 44 1009.1
20260506002814 47 322 0.0 4.0 0.00 0.00 0.00 44 1009.1
20260506002333 47 261 0.0 4.0 0.00 0.00 0.00 43 1009.0
20260506001819 47 297 1.0 4.0 0.00 0.00 0.00 42 1008.9
20260506001322 48 327 0.0 6.0 0.00 0.00 0.00 42 1008.8
20260506000839 48 273 0.0 6.0 0.00 0.00 0.00 42 1008.8
20260506000326 49 311 0.0 5.0 0.00 0.00 0.00 42 1008.7
20260505235829 49 327 0.0 5.0 0.00 0.00 0.00 43 1008.7
20260505235324 48 252 0.0 4.0 0.00 0.00 0.00 43 1008.7
20260505234840 48 324 0.0 4.0 0.00 0.00 0.00 43 1008.7
20260505234323 48 327 0.0 4.0 0.00 0.00 0.00 43 1008.6
20260505233901 48 307 0.0 4.0 0.00 0.00 0.00 43 1008.5
20260505233358 48 290 0.0 2.0 0.00 0.00 0.00 44 1008.5
20260505232838 48 310 0.0 4.0 0.00 0.00 0.00 43 1008.5
20260505232321 48 355 0.0 4.0 0.00 0.00 0.00 43 1008.4
20260505231818 48 331 0.0 2.0 0.00 0.00 0.00 43 1008.4
20260505231323 48 15 0.0 4.0 0.00 0.00 0.00 42 1008.4
20260505230839 49 273 0.0 5.0 0.00 0.00 0.00 41 1008.4
20260505230326 50 349 0.0 5.0 0.00 0.00 0.00 41 1008.3
20260505225822 50 296 0.0 5.0 0.00 0.00 0.00 42 1008.2
20260505225320 49 296 0.0 7.0 0.00 0.00 0.00 41 1008.3
20260505224836 49 290 1.0 7.0 0.00 0.00 0.00 41 1008.2
20260505224341 49 350 0.0 5.0 0.00 0.00 0.00 42 1008.1
20260505223858 49 319 0.0 5.0 0.00 0.00 0.00 42 1008.3
20260505223354 49 336 0.0 4.0 0.00 0.00 0.00 41 1008.3
20260505222836 49 302 0.0 5.0 0.00 0.00 0.00 40 1008.1
20260505222343 49 297 0.0 5.0 0.00 0.00 0.00 41 1008.1
20260505221818 49 292 0.0 4.0 0.00 0.00 0.00 40 1008.3
20260505221322 49 235 0.0 2.0 0.00 0.00 0.00 41 1008.1
20260505220837 49 300 0.0 4.0 0.00 0.00 0.00 40 1008.1
20260505220323 49 304 0.0 4.0 0.00 0.00 0.00 41 1008.1
20260505215819 49 306 1.0 4.0 0.00 0.00 0.00 40 1008.3
20260505215335 49 275 0.0 5.0 0.00 0.00 0.00 41 1008.2
20260505214831 49 277 1.0 5.0 0.00 0.00 0.00 40 1008.3
20260505214333 49 273 0.0 4.0 0.00 0.00 0.00 41 1008.2
20260505213817 49 310 0.0 2.0 0.00 0.00 0.00 40 1008.3
20260505213313 49 259 0.0 4.0 0.00 0.00 0.00 41 1008.3
20260505212816 50 269 1.0 5.0 0.00 0.00 0.00 40 1008.4
20260505212353 50 335 0.0 5.0 0.00 0.00 0.00 39 1008.3
20260505211819 50 255 1.0 4.0 0.00 0.00 0.00 40 1008.3
20260505211318 50 285 0.0 4.0 0.00 0.00 0.00 42 1008.4
20260505210814 49 318 0.0 5.0 0.00 0.00 0.00 42 1008.4
20260505210352 49 284 0.0 5.0 0.00 0.00 0.00 42 1008.5
20260505205827 49 285 0.0 8.0 0.00 0.00 0.00 42 1008.6
20260505205324 49 307 0.0 4.0 0.00 0.00 0.00 41 1008.5
20260505204831 49 331 0.0 4.0 0.00 0.00 0.00 41 1008.6
20260505204315 49 338 0.0 4.0 0.00 0.00 0.00 42 1008.5
20260505203831 49 326 0.0 5.0 0.00 0.00 0.00 42 1008.5
20260505203319 49 302 0.0 4.0 0.00 0.00 0.00 43 1008.5
20260505202824 48 323 1.0 5.0 0.00 0.00 0.00 42 1008.6